This is the latest recevied weather packets stored in our database for station/object K1WJY. If no packets are shown the sender has not sent any weather packets the latest 10 day(s).
| Time | Temp. | Humidity | Pressure | Rain* | Wind** | Luminosity | Snow |
|---|---|---|---|---|---|---|---|
| 1777844562 | 6.11° C | 99% | 1003.4 hPa | 0 mm | - | 56 W/m² | - |
| 1777844261 | 6.11° C | 99% | 1003.3 hPa | 0 mm | - | 78 W/m² | - |
| 1777843958 | 6.11° C | 99% | 1003.5 hPa | 0 mm | - | 88 W/m² | - |
| 1777843654 | 6.11° C | 99% | 1003.4 hPa | 0 mm | - | 105 W/m² | - |
| 1777843352 | 6.11° C | 99% | 1003.5 hPa | 0 mm | - | 89 W/m² | - |
| 1777843050 | 6.11° C | 99% | 1003.3 hPa | 0 mm | - | 69 W/m² | - |
| 1777842745 | 5.56° C | 99% | 1003.4 hPa | 0 mm | - | 69 W/m² | - |
| 1777842441 | 5.56° C | 99% | 1003.4 hPa | 0 mm | - | 89 W/m² | - |
| 1777842139 | 5.56° C | 99% | 1003.6 hPa | 0 mm | - | 67 W/m² | - |
| 1777841834 | 5.56° C | 99% | 1003.3 hPa | 1.27 mm | - | 49 W/m² | - |
| 1777841530 | 5.56° C | 99% | 1003.3 hPa | 1.27 mm | - | 108 W/m² | - |
| 1777841227 | 5.56° C | 99% | 1003.5 hPa | 0 mm | - | 106 W/m² | - |
| 1777840925 | 5.56° C | 99% | 1003.6 hPa | 0 mm | - | 82 W/m² | - |
| 1777840621 | 5.56° C | 99% | 1003.6 hPa | 0 mm | - | 77 W/m² | - |
| 1777840319 | 5.56° C | 99% | 1003.6 hPa | 0 mm | - | 109 W/m² | - |
| 1777840016 | 5.56° C | 99% | 1003.8 hPa | 1.78 mm | - | 99 W/m² | - |
| 1777839714 | 5.56° C | 99% | 1003.6 hPa | 1.78 mm | - | 125 W/m² | - |
| 1777839412 | 5.56° C | 99% | 1003.8 hPa | 0 mm | - | 91 W/m² | - |
| 1777839109 | 5.56° C | 99% | 1003.8 hPa | 0 mm | - | 66 W/m² | - |
| 1777838805 | 5.56° C | 99% | 1004 hPa | 0 mm | - | 96 W/m² | - |
| 1777838501 | 5.56° C | 99% | 1004 hPa | 0 mm | - | 138 W/m² | - |
| 1777838199 | 5.56° C | 99% | 1004 hPa | 1.78 mm | - | 136 W/m² | - |
| 1777837896 | 5.56° C | 99% | 1004 hPa | 1.78 mm | - | 69 W/m² | - |
| 1777837593 | 5.56° C | 99% | 1003.8 hPa | 0 mm | - | 75 W/m² | - |
| 1777837288 | 5° C | 99% | 1003.9 hPa | 0 mm | - | 89 W/m² | - |
* Rain latest hour (hover to see other rain measurements)
** Current wind speed in m/s (hover to see current wind gust speed)